Date String (YYYY-MM-DD hh:mm:ss) UTC,Instrument flags,Ambient pressure (hPa),Sample flow (lpm),Bypass flow (lpm),Sample temperature (°C),Ambient temperature (°C),ASC tube jacket temperature (°C),LED temperature (°C),Box temperature (°C),Sample RH (%),Span deviation,Mass concentration (μg/m³),Mass concentration (μg/m³),Mass concentration (μg/m³)
DateTimeUTC,F1_M11,P_M11,Q1_M11,Q2_M11,T1_M11,T2_M11,T3_M11,T4_M11,T5_M11,U1_M11,ZSPAN_M11,X0_M11,X2_M11,X1_M11
2022-05-12 21:00:00,,0822.6,4.99,0.00,28.9,28.0,00.0,37.9,30.7,05.7,0000.0,0009.88,0003.56,0001.45
2022-05-12 21:01:00,,0822.7,5.01,0.00,28.9,28.0,00.0,37.9,30.8,05.3,0000.0,0009.78,0003.51,0001.46
2022-05-12 21:02:00,,0822.7,4.99,0.00,29.0,28.0,00.0,37.9,30.8,05.4,0000.0,0009.56,0003.47,0001.46
2022-05-12 21:03:00,,0822.7,5.01,0.00,29.0,28.0,00.0,37.9,30.8,05.9,0000.0,0009.30,0003.49,0001.46
2022-05-12 21:04:00,,0822.8,5.00,0.00,29.0,28.1,00.0,37.9,30.8,06.2,0000.0,0009.55,0003.51,0001.45
2022-05-12 21:05:00,,0822.7,5.00,0.00,29.0,28.1,00.0,37.9,30.8,05.9,0000.0,0010.67,0003.47,0001.45
2022-05-12 21:06:00,,0822.6,4.99,0.00,29.0,28.1,00.0,37.9,30.7,05.7,0000.0,0010.76,0003.48,0001.44
2022-05-12 21:07:00,,0822.6,5.01,0.00,28.9,28.1,00.0,37.9,30.7,05.4,0000.0,0011.07,0003.48,0001.44
2022-05-12 21:08:00,,0822.6,4.99,0.00,28.9,28.0,00.0,37.9,30.7,05.5,0000.0,0011.12,0003.45,0001.44
2022-05-12 21:09:00,,0822.6,5.00,0.00,28.9,28.0,00.0,37.9,30.7,05.6,0000.0,0010.84,0003.36,0001.43
2022-05-12 21:10:00,,0822.6,5.01,0.00,28.9,27.9,00.0,37.9,30.6,05.5,0000.0,0011.01,0003.35,0001.45
2022-05-12 21:11:00,,0822.6,5.00,0.00,28.9,27.9,00.0,37.9,30.6,05.6,0000.0,0010.84,0003.35,0001.45
2022-05-12 21:12:00,,0822.6,5.00,0.00,28.9,27.9,00.0,37.8,30.6,05.8,0000.0,0010.77,0003.35,0001.44
2022-05-12 21:13:00,,0822.6,5.01,0.00,28.8,27.9,00.0,37.8,30.5,06.0,0000.0,0010.47,0003.35,0001.44
2022-05-12 21:14:00,,0822.6,5.00,0.00,28.8,27.9,00.0,37.8,30.6,05.7,0000.0,0010.72,0003.42,0001.45
2022-05-12 21:15:00,,0822.6,5.00,0.00,28.8,27.9,00.0,37.8,30.6,05.7,0000.0,0010.48,0003.37,0001.45
2022-05-12 21:16:00,,0822.6,5.00,0.00,28.8,28.0,00.0,37.8,30.6,05.5,0000.0,0009.32,0003.40,0001.46
2022-05-12 21:17:00,,0822.6,5.00,0.00,28.8,28.0,00.0,37.8,30.6,05.7,0000.0,0009.16,0003.39,0001.45
2022-05-12 21:18:00,,0822.5,4.99,0.00,28.8,28.0,00.0,37.8,30.6,05.5,0000.0,0008.87,0003.36,0001.44
2022-05-12 21:19:00,,0822.4,5.01,0.00,28.8,28.0,00.0,37.8,30.6,05.4,0000.0,0008.62,0003.38,0001.44
2022-05-12 21:20:00,,0822.5,5.00,0.00,28.8,28.0,00.0,37.8,30.6,05.5,0000.0,0008.87,0003.39,0001.42
2022-05-12 21:21:00,,0822.4,4.99,0.00,28.9,28.0,00.0,37.8,30.7,05.9,0000.0,0008.95,0003.38,0001.40
2022-05-12 21:22:00,,0822.4,5.00,0.00,28.9,28.0,00.0,37.8,30.7,06.1,0000.0,0009.37,0003.37,0001.40
2022-05-12 21:23:00,,0822.5,5.01,0.00,28.9,28.0,00.0,37.8,30.7,06.3,0000.0,0010.23,0003.41,0001.41
2022-05-12 21:24:00,,0822.5,4.97,0.00,28.9,28.0,00.0,37.8,30.7,05.8,0000.0,0010.95,0003.45,0001.40
2022-05-12 21:25:00,,0822.5,5.01,0.00,28.9,28.0,00.0,37.8,30.7,05.6,0000.0,0010.84,0003.43,0001.40
2022-05-12 21:26:00,,0822.6,4.99,0.00,28.9,28.0,00.0,37.8,30.7,05.7,0000.0,0010.84,0003.44,0001.39
2022-05-12 21:27:00,,0822.6,5.01,0.00,28.9,28.1,00.0,37.8,30.7,06.1,0000.0,0010.98,0003.44,0001.38
2022-05-12 21:28:00,,0822.7,5.00,0.00,28.9,28.1,00.0,37.8,30.8,06.1,0000.0,0010.86,0003.43,0001.39
2022-05-12 21:29:00,,0822.7,4.99,0.00,29.0,28.1,00.0,37.8,30.8,05.8,0000.0,0011.01,0003.50,0001.39
2022-05-12 21:30:00,,0822.6,5.01,0.00,29.0,28.1,00.0,37.8,30.8,05.9,0000.0,0011.24,0003.51,0001.39
2022-05-12 21:31:00,,0822.6,4.98,0.00,29.0,28.1,00.0,37.9,30.8,06.2,0000.0,0011.15,0003.50,0001.41
2022-05-12 21:32:00,,0822.5,5.01,0.00,29.0,28.1,00.0,37.9,30.8,06.5,0000.0,0010.68,0003.46,0001.41
2022-05-12 21:33:00,,0822.5,5.00,0.00,29.0,28.1,00.0,37.9,30.8,06.8,0000.0,0010.10,0003.48,0001.41
2022-05-12 21:34:00,,0822.3,5.00,0.00,29.0,28.1,00.0,37.9,30.8,06.9,0000.0,0009.69,0003.48,0001.39
2022-05-12 21:35:00,,0822.3,4.99,0.00,29.0,28.1,00.0,37.9,30.8,06.7,0000.0,0008.91,0003.44,0001.39
2022-05-12 21:36:00,,0822.6,5.00,0.00,29.0,28.0,00.0,37.9,30.8,06.6,0000.0,0008.52,0003.40,0001.39
2022-05-12 21:37:00,,0822.7,5.03,0.00,29.0,28.1,00.0,37.9,30.8,06.8,0000.0,0008.56,0003.39,0001.38
2022-05-12 21:38:00,,0822.6,4.99,0.00,29.0,28.1,00.0,37.9,30.9,06.9,0000.0,0009.06,0003.41,0001.39
2022-05-12 21:39:00,,0822.6,5.01,0.00,29.1,28.1,00.0,37.9,30.9,06.9,0000.0,0009.55,0003.40,0001.39
2022-05-12 21:40:00,,0822.5,5.01,0.00,29.1,28.1,00.0,37.9,30.9,06.7,0000.0,0010.00,0003.42,0001.38
2022-05-12 21:41:00,,0822.5,4.98,0.00,29.1,28.1,00.0,37.9,30.9,06.7,0000.0,0010.05,0003.38,0001.38
2022-05-12 21:42:00,,0822.5,5.00,0.00,29.1,28.1,00.0,37.9,30.9,06.6,0000.0,0010.29,0003.35,0001.35
2022-05-12 21:43:00,,0822.6,5.01,0.00,29.1,28.1,00.0,37.9,30.9,06.9,0000.0,0011.41,0003.36,0001.35
2022-05-12 21:44:00,,0822.6,5.00,0.00,29.1,28.1,00.0,37.9,30.9,07.0,0000.0,0011.96,0003.37,0001.35
2022-05-12 21:45:00,,0822.6,5.00,0.00,29.1,28.1,00.0,37.9,30.9,06.9,0000.0,0011.95,0003.38,0001.35
2022-05-12 21:46:00,,0822.6,4.99,0.00,29.1,28.1,00.0,38.0,30.9,07.3,0000.0,0011.96,0003.37,0001.35
2022-05-12 21:47:00,,0822.6,5.00,0.00,29.1,28.1,00.0,38.0,30.9,07.2,0000.0,0012.15,0003.40,0001.35
2022-05-12 21:48:00,,0822.7,5.00,0.00,29.1,28.1,00.0,38.0,30.9,07.1,0000.0,0012.21,0003.41,0001.35
2022-05-12 21:49:00,,0822.7,5.00,0.00,29.1,28.2,00.0,38.0,30.9,07.2,0000.0,0011.61,0003.42,0001.35
2022-05-12 21:50:00,,0822.7,5.00,0.00,29.1,28.2,00.0,38.0,30.9,07.2,0000.0,0010.94,0003.41,0001.35
2022-05-12 21:51:00,,0822.8,5.01,0.00,29.1,28.2,00.0,38.0,30.9,07.4,0000.0,0010.73,0003.40,0001.36
2022-05-12 21:52:00,,0822.7,5.00,0.00,29.1,28.2,00.0,38.0,30.9,07.0,0000.0,0010.72,0003.40,0001.34
2022-05-12 21:53:00,,0822.7,5.00,0.00,29.1,28.2,00.0,38.0,30.9,06.9,0000.0,0010.49,0003.41,0001.34
2022-05-12 21:54:00,,0822.6,5.00,0.00,29.1,28.2,00.0,38.0,30.9,06.9,0000.0,0009.35,0003.43,0001.33
2022-05-12 21:55:00,,0822.7,5.00,0.00,29.1,28.2,00.0,38.0,30.9,06.8,0000.0,0008.69,0003.41,0001.31
2022-05-12 21:56:00,,0822.7,5.00,0.00,29.1,28.2,00.0,38.0,30.9,07.3,0000.0,0008.68,0003.39,0001.30
2022-05-12 21:57:00,,0822.6,4.99,0.00,29.1,28.3,00.0,38.0,30.9,07.1,0000.0,0008.67,0003.40,0001.29
2022-05-12 21:58:00,,0822.6,5.00,0.00,29.1,28.2,00.0,38.0,30.9,07.1,0000.0,0008.72,0003.38,0001.29
2022-05-12 21:59:00,,0822.7,5.00,0.00,29.1,28.3,00.0,38.0,31.0,07.2,0000.0,0009.21,0003.38,0001.29
